Hourly Data Report for December 15, 2017

TORONTO CITY
ONTARIO

43°40'00.000" N
79°24'00.000" W
112.50 m
6158355
71508
XTO

Download Data

Hourly Data (December 2017)
Hourly Data Report for December 15, 2017
TIME
LST
Temp Definition
°C
Dew Point Definition
°C
Rel Hum Definition
%
Precip. Amount Definition
mm

Wind Dir Definition
10's deg

Wind Spd Definition
km/h
Visibility Definition
km
Stn Press Definition
kPa
Hmdx Definition


Wind Chill Definition


Weather Definition


00:00 -8.4 -11.9 76 0.0 LegendMM LegendMM   100.25     LegendNANA
01:00 -8.6 -12.8 72 0.0 LegendMM LegendMM   100.24     LegendNANA
02:00 -9.0 -13.1 72 0.0 LegendMM LegendMM   100.21     LegendNANA
03:00 -9.7 -13.2 76 0.0 LegendMM LegendMM   100.18     LegendNANA
04:00 -8.4 -12.3 73 0.0 LegendMM LegendMM   100.13     LegendNANA
05:00 -8.4 -11.5 78 0.0 LegendMM LegendMM   100.05     LegendNANA
06:00 -8.4 -11.6 78 0.0 LegendMM LegendMM   100.05     LegendNANA
07:00 -8.3 -11.8 76 0.0 LegendMM LegendMM   100.02     LegendNANA
08:00 -6.6 -11.3 69 0.0 LegendMM LegendMM   99.99     LegendNANA
09:00 -6.2 -11.8 64 0.0 LegendMM LegendMM   99.95     LegendNANA
10:00 -5.0 -10.5 65 0.0 LegendMM LegendMM   99.90     LegendNANA
11:00 -5.0 -10.8 64 0.0 LegendMM LegendMM   99.84     LegendNANA
12:00 -4.4 -8.6 72 0.0 LegendMM LegendMM   99.68     LegendNANA
13:00 -4.1 -8.3 73 0.0 LegendMM LegendMM   99.55     LegendNANA
14:00 -3.7 -7.9 73 0.0 LegendMM LegendMM   99.45     LegendNANA
15:00 -3.4 -7.1 76 0.0 LegendMM LegendMM   99.39     LegendNANA
16:00 -3.4 -5.0 89 0.2 LegendMM LegendMM   99.33     LegendNANA
17:00 -3.1 -5.1 86 0.3 LegendMM LegendMM   99.30     LegendNANA
18:00 -3.5 -6.3 81 0.0 LegendMM LegendMM   99.28     LegendNANA
19:00 -3.5 -6.7 79 0.0 LegendMM LegendMM   99.28     LegendNANA
20:00 -3.3 -7.2 75 0.0 LegendMM LegendMM   99.32     LegendNANA
21:00 -3.4 -7.8 71 0.0 LegendMM LegendMM   99.36     LegendNANA
22:00 -3.7 -8.4 70 0.0 LegendMM LegendMM   99.43     LegendNANA
23:00 -3.7 -8.8 68 0.0 LegendMM LegendMM   99.49     LegendNANA

Notes on Data Quality.

Legend

  • E = Estimated
  • M = Missing
  • NA = Not Available*
  • [empty] = Indicates an unobserved value
Date modified: